Location: Lawrence
(38.9720°N, 95.2350°W)
Time: 18:33:49
(UTC-05:00)

Amateur Radio Satellites - All Passes

Search period start: 01 September 2014 18:03
Search period end: 02 September 2014 18:03
Location: Lawrence, 38.9720°N, 95.2350°W

Satellite Date Start Highest point End Downlink Frequencies (MHz)
Time Altitude Azimuth
RS-15 01 Sep 18:11:50 18:22:39 60° 247° (WSW) 18:33:56 29.354 - 29.394 USB, Beacon 29.352 USB
JAS-2 01 Sep 18:20:24 18:26:29 68° 74° (ENE) 18:31:56 435.800 - 435.900 CW/SSB, 435.910 FM
AO-7 01 Sep 18:27:15 18:33:24 23° 266° (W) 18:39:35 29.400 - 29.500 MHz
PCSat 01 Sep 18:31:07 18:35:23 23° 311° (NW) 18:39:40 145.825 MHz
SO-67 01 Sep 18:43:25 18:44:57 13° 67° (ENE) 18:46:29 435.3500 MHz FM
Hamsat 01 Sep 19:13:35 19:17:24 30° 264° (W) 19:21:15 145.90 MHz
OPAL 01 Sep 19:21:20 19:24:59 20° 298° (WNW) 19:28:37 ?
STRAND 1 01 Sep 19:28:53 19:33:20 29° 96° (E) 19:37:45 ?
HO-68 01 Sep 19:51:21 19:55:44 18° 56° (NE) 20:00:07 435.675 MHz FM
JAS-2 01 Sep 20:08:31 20:11:53 15° 267° (W) 20:15:05 435.800 - 435.900 CW/SSB, 435.910 FM
SO-67 01 Sep 20:14:30 20:17:40 33° 262° (W) 20:20:52 435.3500 MHz FM
STRAND 1 01 Sep 21:08:01 21:12:27 31° 292° (WNW) 21:16:53 ?
UKube-1 01 Sep 21:10:08 21:13:35 24° 68° (ENE) 21:17:03 145.840 MHz, 145.915 MHz
Oscar 11 01 Sep 21:14:46 21:17:29 17° 66° (ENE) 21:20:13 145.825 FM, Beacon 2401.500 USB
HO-68 01 Sep 21:35:21 21:42:30 89° 254° (WSW) 21:49:41 435.675 MHz FM
Saudisat 1A 01 Sep 21:43:11 21:46:20 20° 111° (ESE) 21:49:30 436.775 MHz
FUNcube-1 01 Sep 21:47:09 21:49:15 14° 64° (ENE) 21:51:22 145.950 - 145.970 MHz USB
MaSat-1 01 Sep 22:08:17 22:11:52 22° 53° (NE) 22:15:04 437.345 MHz
KITSAT 1 01 Sep 22:26:02 22:32:16 25° 104° (ESE) 22:38:30 435.175 FM
UKube-1 01 Sep 22:45:54 22:49:39 28° 263° (W) 22:53:26 145.840 MHz, 145.915 MHz
AO-40 01 Sep 22:46:57 04:05:28 40° 151° (SSE) 05:41:27 Beacon 2401.320
Oscar 11 01 Sep 22:49:11 22:53:18 43° 261° (W) 22:57:28 145.825 FM, Beacon 2401.500 USB
FUNcube-1 01 Sep 23:21:08 23:25:11 49° 261° (W) 23:29:20 145.950 - 145.970 MHz USB
Saudisat 1A 01 Sep 23:21:27 23:25:37 41° 307° (NW) 23:29:49 436.775 MHz
HO-68 01 Sep 23:27:36 23:31:03 14° 270° (W) 23:34:31 435.675 MHz FM
MaSat-1 01 Sep 23:45:03 23:48:55 31° 255° (WSW) 23:52:17 437.345 MHz
KITSAT 1 02 Sep 00:18:55 00:26:58 68° 302° (WNW) 00:35:03 435.175 FM
Sapphire 02 Sep 01:07:05 01:10:59 20° 47° (NE) 01:14:52 437.095 MHz 1200 baud AX-25 AFSK
PCSat 02 Sep 01:35:41 01:40:36 34° 53° (NE) 01:45:29 145.825 MHz
Oscar 19 02 Sep 01:42:22 01:45:00 14° 91° (E) 01:47:37 437.125 CW, 437.150 USB
Oscar 10/S400 02 Sep 02:11:23 03:15:05 51° 217° (SW) 10:00:09 145.825 - 145.975 CW/USB, Beacon 145.810 USB
Oscar 16 02 Sep 02:16:04 02:20:42 32° 97° (E) 02:25:17 437.025 USB, Beacon 2401.1428
KITSAT 1 02 Sep 02:18:41 02:23:59 18° 325° (NW) 02:29:19 435.175 FM
ITAMSAT 1 02 Sep 02:20:12 02:22:44 14° 91° (E) 02:25:15 435.822 SSB
SO-50 02 Sep 02:24:16 02:25:40 11° 107° (ESE) 02:27:05 436.795 FM
Uribyol 2 02 Sep 02:28:43 02:32:14 18° 93° (E) 02:35:44 436.500 FM
JAS-1B 02 Sep 02:34:48 02:39:16 20° 90° (E) 02:43:23 435.800 - 435.900 CW/SSB
AO-27 02 Sep 02:48:23 02:52:46 27° 96° (E) 02:57:07 436.795 MHz FM
Sapphire 02 Sep 02:49:30 02:54:53 65° 246° (WSW) 03:00:13 437.095 MHz 1200 baud AX-25 AFSK
PCSat 02 Sep 03:19:09 03:23:57 33° 251° (WSW) 03:28:44 145.825 MHz
Oscar 19 02 Sep 03:19:37 03:24:46 65° 286° (WNW) 03:29:53 437.125 CW, 437.150 USB
OPAL 02 Sep 03:21:22 03:22:12 10° 56° (NE) 03:23:03 ?
AO-Echo 02 Sep 03:27:46 03:32:28 74° 102° (ESE) 03:37:12 ?
Gurwin Techsat 1B 02 Sep 03:29:58 03:34:38 31° 96° (E) 03:39:16 435.225 FM
Oscar 16 02 Sep 03:55:29 03:59:56 30° 292° (WNW) 04:04:23 437.025 USB, Beacon 2401.1428
ITAMSAT 1 02 Sep 03:57:30 04:02:40 67° 286° (WNW) 04:07:48 435.822 SSB
SO-50 02 Sep 04:01:08 04:05:34 69° 303° (WNW) 04:10:08 436.795 FM
Uribyol 2 02 Sep 04:06:56 04:11:58 51° 288° (WNW) 04:16:59 436.500 FM
UOSAT-12 02 Sep 04:10:25 04:11:40 11° 106° (ESE) 04:12:56 437.025 FM, 437.400 FM
TMSAT-1 02 Sep 04:19:27 04:24:45 67° 102° (ESE) 04:30:00 436.925 FM
Uosat F 02 Sep 04:23:10 04:24:40 11° 90° (E) 04:26:10 435.120 FM
JAS-1B 02 Sep 04:24:09 04:30:32 53° 291° (WNW) 04:36:09 435.800 - 435.900 CW/SSB
AO-27 02 Sep 04:27:37 04:32:17 34° 291° (WNW) 04:36:55 436.795 MHz FM
AO-7 02 Sep 04:35:41 04:42:14 25° 95° (E) 04:48:43 29.400 - 29.500 MHz
OPAL 02 Sep 04:55:09 05:00:13 83° 73° (ENE) 05:05:23 ?
AO-Echo 02 Sep 05:09:10 05:10:38 11° 298° (WNW) 05:12:05 ?
Gurwin Techsat 1B 02 Sep 05:09:53 05:14:32 32° 292° (WNW) 05:19:10 435.225 FM
SO-50 02 Sep 05:46:09 05:47:02 11° 323° (NW) 05:47:55 436.795 FM
UOSAT-12 02 Sep 05:46:32 05:51:07 75° 302° (WNW) 05:55:50 437.025 FM, 437.400 FM
Uosat F 02 Sep 05:58:57 06:03:57 74° 286° (WNW) 06:08:56 435.120 FM
TMSAT-1 02 Sep 06:01:02 06:04:04 16° 298° (WNW) 06:07:07 436.925 FM
Saudisat 1A 02 Sep 06:10:52 06:13:19 14° 42° (NE) 06:15:46 436.775 MHz
KITSAT 1 02 Sep 06:19:41 06:23:43 14° 28° (NNE) 06:27:43 435.175 FM
RS-15 02 Sep 06:24:32 06:32:48 25° 102° (ESE) 06:40:55 29.354 - 29.394 USB, Beacon 29.352 USB
AO-7 02 Sep 06:27:21 06:35:32 67° 292° (WNW) 06:43:41 29.400 - 29.500 MHz
OPAL 02 Sep 06:38:54 06:39:42 10° 269° (W) 06:40:29 ?
STRAND 1 02 Sep 06:43:40 06:48:21 38° 70° (ENE) 06:53:02 ?
Hamsat 02 Sep 07:00:02 07:04:16 50° 99° (E) 07:08:26 145.90 MHz
JAS-2 02 Sep 07:14:41 07:19:59 64° 102° (ESE) 07:25:46 435.800 - 435.900 CW/SSB, 435.910 FM
UOSAT-12 02 Sep 07:30:23 07:32:06 12° 322° (NW) 07:33:50 437.025 FM, 437.400 FM
SO-67 02 Sep 07:40:02 07:42:18 16° 94° (E) 07:44:32 435.3500 MHz FM
Saudisat 1A 02 Sep 07:49:00 07:53:24 74° 241° (WSW) 07:57:47 436.775 MHz
KITSAT 1 02 Sep 08:13:33 08:21:22 49° 53° (NE) 08:29:06 435.175 FM
AO-7 02 Sep 08:22:50 08:26:46 14° 312° (NW) 08:30:42 29.400 - 29.500 MHz
STRAND 1 02 Sep 08:23:35 08:27:37 23° 265° (W) 08:31:40 ?
RS-15 02 Sep 08:32:45 08:43:52 80° 302° (WNW) 08:54:51 29.354 - 29.394 USB, Beacon 29.352 USB
Hamsat 02 Sep 08:37:30 08:39:46 14° 295° (WNW) 08:42:01 145.90 MHz
ISS 02 Sep 08:47:07 08:48:02 11° 128° (SE) 08:48:56 145.800 FM
JAS-2 02 Sep 09:01:34 09:04:40 16° 297° (WNW) 09:07:53 435.800 - 435.900 CW/SSB, 435.910 FM
HO-68 02 Sep 09:06:05 09:10:42 18° 92° (E) 09:15:18 435.675 MHz FM
SO-67 02 Sep 09:12:28 09:15:19 24° 289° (WNW) 09:18:10 435.3500 MHz FM
KITSAT 1 02 Sep 10:09:19 10:16:31 37° 252° (WSW) 10:23:41 435.175 FM
ISS 02 Sep 10:21:00 10:24:19 73° 323° (NW) 10:27:39 145.800 FM
UKube-1 02 Sep 10:34:40 10:38:54 50° 100° (E) 10:43:07 145.840 MHz, 145.915 MHz
Oscar 11 02 Sep 10:37:59 10:42:01 36° 98° (E) 10:46:02 145.825 FM, Beacon 2401.500 USB
RS-15 02 Sep 10:49:25 10:58:12 27° 329° (NNW) 11:07:01 29.354 - 29.394 USB, Beacon 29.352 USB
HO-68 02 Sep 10:51:53 10:59:03 77° 288° (WNW) 11:06:11 435.675 MHz FM
SO-50 02 Sep 10:55:14 10:57:09 12° 39° (NE) 10:59:04 436.795 FM
FUNcube-1 02 Sep 11:11:14 11:15:24 34° 97° (E) 11:19:35 145.950 - 145.970 MHz USB
MaSat-1 02 Sep 11:56:09 11:58:34 14° 99° (E) 12:01:02 437.345 MHz
ISS 02 Sep 11:59:28 12:01:32 15° 341° (NNW) 12:03:35 145.800 FM
PANSAT 02 Sep 12:06:42 12:09:09 16° 174° (S) 12:11:37 not established
UKube-1 02 Sep 12:12:19 12:14:40 15° 296° (WNW) 12:17:01 145.840 MHz, 145.915 MHz
Oscar 11 02 Sep 12:14:50 12:17:56 19° 293° (WNW) 12:21:02 145.825 FM, Beacon 2401.500 USB
SO-50 02 Sep 12:33:42 12:38:31 75° 58° (ENE) 12:43:22 436.795 FM
UOSAT-12 02 Sep 12:39:48 12:40:59 11° 37° (NE) 12:42:09 437.025 FM, 437.400 FM
HO-68 02 Sep 12:42:04 12:45:35 15° 307° (NW) 12:49:07 435.675 MHz FM
FUNcube-1 02 Sep 12:48:03 12:51:35 22° 292° (WNW) 12:55:07 145.950 - 145.970 MHz USB
Oscar 19 02 Sep 12:57:53 13:01:29 19° 64° (ENE) 13:05:05 437.125 CW, 437.150 USB
RS-15 02 Sep 13:09:37 13:16:07 17° 5° (N) 13:22:41 29.354 - 29.394 USB, Beacon 29.352 USB
JAS-1B 02 Sep 13:15:58 13:23:17 26° 61° (ENE) 13:29:57 435.800 - 435.900 CW/SSB
MaSat-1 02 Sep 13:29:59 13:34:52 69° 296° (WNW) 13:40:02 437.345 MHz
Oscar 16 02 Sep 13:31:49 13:36:37 41° 70° (ENE) 13:41:28 437.025 USB, Beacon 2401.1428
ITAMSAT 1 02 Sep 13:36:49 13:40:28 20° 64° (ENE) 13:44:07 435.822 SSB
Uribyol 2 02 Sep 13:45:25 13:49:33 25° 66° (ENE) 13:53:42 436.500 FM
PANSAT 02 Sep 13:46:19 13:48:42 16° 187° (S) 13:51:04 not established
TMSAT-1 02 Sep 14:03:33 14:05:12 11° 59° (ENE) 14:06:52 436.925 FM
AO-27 02 Sep 14:05:22 14:10:04 37° 69° (ENE) 14:14:48 436.795 MHz FM
SO-50 02 Sep 14:16:40 14:18:28 12° 253° (WSW) 14:20:16 436.795 FM
UOSAT-12 02 Sep 14:17:20 14:22:03 66° 57° (ENE) 14:26:40 437.025 FM, 437.400 FM
Oscar 19 02 Sep 14:35:24 14:40:24 51° 260° (W) 14:45:28 437.125 CW, 437.150 USB
AO-Echo 02 Sep 14:39:21 14:44:22 85° 76° (ENE) 14:49:16 ?
Gurwin Techsat 1B 02 Sep 14:49:49 14:54:48 43° 70° (ENE) 14:59:48 435.225 FM
JAS-1B 02 Sep 15:03:14 15:13:03 79° 256° (WSW) 15:21:49 435.800 - 435.900 CW/SSB
MaSat-1 02 Sep 15:11:35 15:12:51 11° 315° (NW) 15:14:07 437.345 MHz
Oscar 16 02 Sep 15:12:08 15:16:06 22° 266° (W) 15:20:06 437.025 USB, Beacon 2401.1428
ITAMSAT 1 02 Sep 15:14:35 15:19:34 49° 260° (W) 15:24:35 435.822 SSB
ISS 02 Sep 15:14:57 15:17:15 17° 22° (NNE) 15:19:33 145.800 FM
RS-15 02 Sep 15:23:31 15:33:20 35° 39° (NE) 15:43:22 29.354 - 29.394 USB, Beacon 29.352 USB
Uribyol 2 02 Sep 15:24:04 15:28:49 37° 262° (W) 15:33:36 436.500 FM
AO-7 02 Sep 15:33:26 15:40:36 34° 59° (ENE) 15:47:44 29.400 - 29.500 MHz
Uosat F 02 Sep 15:34:50 15:37:45 16° 62° (ENE) 15:40:39 435.120 FM
TMSAT-1 02 Sep 15:39:02 15:44:19 90° 142° (SE) 15:49:38 436.925 FM
AO-27 02 Sep 15:45:26 15:49:38 25° 265° (W) 15:53:52 436.795 MHz FM
Sapphire 02 Sep 15:48:36 15:52:19 19° 105° (ESE) 15:56:03 437.095 MHz 1200 baud AX-25 AFSK
UOSAT-12 02 Sep 15:59:28 16:01:36 13° 253° (WSW) 16:03:43 437.025 FM, 437.400 FM
PCSat 02 Sep 16:16:16 16:21:12 38° 110° (ESE) 16:26:10 145.825 MHz
Gurwin Techsat 1B 02 Sep 16:30:51 16:34:55 22° 266° (W) 16:39:00 435.225 FM
ISS 02 Sep 16:51:02 16:54:22 86° 220° (SW) 16:57:41 145.800 FM
JAS-1B 02 Sep 16:58:52 17:04:20 16° 271° (W) 17:09:34 435.800 - 435.900 CW/SSB
OPAL 02 Sep 17:06:57 17:11:10 24° 97° (E) 17:15:19 ?
Uosat F 02 Sep 17:11:04 17:16:00 61° 259° (WSW) 17:20:58 435.120 FM
AO-7 02 Sep 17:24:51 17:32:58 56° 257° (WSW) 17:41:07 29.400 - 29.500 MHz
JAS-2 02 Sep 17:27:09 17:31:42 24° 67° (ENE) 17:35:57 435.800 - 435.900 CW/SSB, 435.910 FM
Sapphire 02 Sep 17:29:59 17:35:16 55° 302° (WNW) 17:40:36 437.095 MHz 1200 baud AX-25 AFSK
RS-15 02 Sep 17:35:40 17:46:46 77° 243° (WSW) 17:58:20 29.354 - 29.394 USB, Beacon 29.352 USB
Hamsat 02 Sep 17:52:17 17:56:06 31° 71° (ENE) 17:59:57 145.90 MHz
